METAR Formatted Surface Weather Observation
Issued by NWS Pago Pago

Home | Current Version | Previous Version | Text Only | Print | Product List | Glossary On
Versions: 1 2 3 4 5 6 7 8 9 10 11 12 13 14 15 16 17 18 19 20 21 22 23 24 25 26 27 28 29 30 31 32 33 34 35 36 37 38 39 40 41 42 43 44 45 46 47 48 49 50
805
SAZS31 NSTU 230252
MTRPPG
METAR NSTU 230250Z 09010KT 12SM FEW020 31/27 A2980 RMK SLP091 8/100
T03050272 56017=



USA.gov is the U.S. government's official web portal to all federal, state and local government web resources and services.